Home   Weather   Küssnacht   Past weeks

Flag for Switzerland Past Weather in Küssnacht, Schwyz, Switzerland — Yesterday and Last 2 Weeks

Now
26 °F

Low clouds.


Feels Like: 21 °F
Forecast: 21 / 28 °F
Wind: 5 mph from South

Location: Altdorf

Current Time: Jan 21, 2017 at 5:37:25 am

Latest Report: Jan 21, 2017 at 4:00 am


Visibility: 3 mi

Pressure: 30.47 "Hg

Humidity: 88%

Dew Point: 23 °F

Location of KüssnachtLocation

Past Weather in Küssnacht — Graph

°F

Küssnacht Temperature Yesterday

Maximum temperature yesterday: 28 °F (at 3:00 pm)
Minimum temperature yesterday: 23 °F (at 2:00 am)
Average temperature yesterday: 25 °F

High & Low Weather Summary for the Past Weeks

 TemperatureHumidityPressure
High48 °F (Jan 13, 12:00 am)98% (Jan 10, 9:00 pm)30.73 "Hg (Jan 10, 9:00 pm)
Low8 °F (Jan 7, 5:00 am)48% (Jan 13, 9:00 am)29.50 "Hg (Jan 13, 1:00 am)
Average28 °F79%30.28 "Hg
* Reported Jan 6 4:00 am — Jan 21 4:00 am, Küssnacht, Weather by CustomWeather, © 2017

Note: Actual official high and low records may vary slightly from our data, if they occured in-between our weather recording intervals... More about our weather records

Advertising

Küssnacht Weather History for the Previous 24 Hours

Scroll right to see more
 ConditionsComfort  
Time TempWeatherWind HumidityBarometerVisibility
4:00 am
Sat, Jan 21
26 °FLow clouds.5 mph88%30.47 "Hg3 mi
3:00 am27 °FChilly.2 mph86%30.47 "HgN/A
2:00 am26 °FChilly.3 mph85%30.48 "HgN/A
1:00 am26 °FLow clouds.3 mph86%30.49 "Hg4 mi
12:00 am26 °FChilly.5 mph84%30.49 "HgN/A
11:00 pm
Fri, Jan 20
26 °FChilly.5 mph84%30.50 "HgN/A
10:00 pm26 °FLow clouds.3 mph83%30.50 "Hg4 mi
9:00 pm27 °FChilly.5 mph81%30.50 "HgN/A
8:00 pm27 °FChilly.3 mph81%30.49 "HgN/A
7:00 pm27 °FLow clouds.3 mph80%30.49 "Hg5 mi
6:00 pm27 °FChilly.3 mph80%30.49 "HgN/A
5:00 pm28 °FChilly.1 mph79%30.48 "HgN/A
4:00 pm28 °FLow clouds.2 mph80%30.48 "Hg6 mi
3:00 pm28 °FChilly.2 mph80%30.49 "HgN/A
2:00 pm28 °FChilly.2 mph79%30.49 "HgN/A
1:00 pm28 °FLow clouds.1 mph77%30.49 "Hg9 mi
12:00 pm26 °FChilly.3 mph79%30.51 "HgN/A
11:00 am25 °FChilly.3 mph80%30.54 "HgN/A
10:00 am25 °FLow clouds.3 mph80%30.53 "Hg9 mi
9:00 am24 °FCold.3 mph79%30.52 "HgN/A
8:00 am24 °FCold.5 mph80%30.52 "HgN/A
7:00 am24 °FOvercast.5 mph80%30.52 "Hg16 mi
6:00 am23 °FCold.5 mph80%30.52 "HgN/A
5:00 am23 °FCold.6 mph80%30.52 "HgN/A
Weather by CustomWeather, © 2017

See weather overviewHow to use our weather pages